Tracking 21092 objects as of 14-Aug-2020
HD Live streaming from Space Station
objects crossing your sky now
Track the most recent launched group of Starlink satellites

CZ-3 DEB

Track CZ-3 DEB now!


NORAD ID: 26788
Int'l Code: 1986-010E
Perigee: 645.0 km
Apogee: 30,996.1 km
Inclination: 30.6 °
Period: 548.3 minutes
Semi major axis: 22191 km
RCS: 0.0641 m2 (small)
Launch date: February 1, 1986
Source: People's Republic of China (PRC)
Launch site: Xichang Space Center, China (XSC)

Note: This is SATELLITE DEBRIS
aabbcc
Your satellite tracking list
Your tracking list is empty




NASA's NSSDC Master Catalog

Two Line Element Set (TLE):
1 26788U 86010E   18326.07686854 -.00000149 +00000-0 -13771-2 0  9997
2 26788 030.5932 212.8595 6838437 207.6481 350.7771 02.62616644175947
Source of the keplerian elements: AFSPC